User: anonymous   Login
Location: Unspecified
(0.0000°N, 0.0000°E)
Time: 04:40:46
(UTC+02:00)
Language:

BREEZE-M DEB (TANK) - Orbit

View from above orbital plane
View from above orbital plane
View from above satellite
View from above satellite

Ground track
Ground track

The orbit data is extracted from the following two-line orbital elements,

1 33374U 08044B   16237.07275960  .00000538  00000-0  10861-3 0  9996
2 33374  49.4336 132.8088 5451993 265.9965  33.2918  4.86404580139535
Epoch (UTC): 24 August 2016 01:44:46
Eccentricity: 0.5451993
inclination: 49.4336°
perigee height: 314 km
apogee height: 16358 km
right ascension of ascending node: 132.8088°
argument of perigee: 265.9965°
revolutions per day: 4.86404580
mean anomaly at epoch: 33.2918°
orbit number at epoch: 13953

The dashed part of the orbit path shows where the satellite is in the earth's shadow,  

DLR